Regional Weather Roundup
Issued by NWS

Home | Current Version | Previous Version | Graphics & Text | Print | Product List | Glossary On
Versions: 1 2 3 4 5 6 7 8 9 10 11 12 13 14 15 16 17 18 19 20 21 22 23 24 25 26 27
000
ASUS45 KSLC 250710
RWRUT

UTAH REGIONAL WEATHER ROUNDUP
NATIONAL WEATHER SERVICE SALT LAKE CITY UT
100 AM MDT MON JUL 25 2016

UTZ001>011-023>025-250800-

NORTHERN UTAH

CITY           SKY/WX    TMP DP  RH WIND       PRES   REMARKS
BRIGHAM CITY     N/A     67  37  32 N5        30.05S
HILL AFB       CLEAR     74  30  19 E16       30.08R
LOGAN          CLEAR     65  39  38 SW5       30.09S
OGDEN          CLEAR     74  31  20 S9        30.05R
PROVO AIRPORT  CLEAR     72  37  28 SE9       30.07R
SALT LAKE CITY CLEAR     74  38  27 N5        30.03S
VERNAL         CLEAR     62  39  42 W3        30.13R
WENDOVER       PTCLDY    72  28  20 W3        30.04F
HEBER CITY     CLEAR     57  41  54 CALM      30.17R

$$

UTZ012>022-026-027-250800-

SOUTHERN/CENTRAL UTAH

CITY           SKY/WX    TMP DP  RH WIND       PRES   REMARKS
BLANDING       MOCLDY    72  42  33 N6        30.27S
BRYCE CANYON   CLEAR     55  41  59 W8        30.37S
CEDAR CITY     CLEAR     73  43  33 S5        30.16R
DELTA          CLEAR     79  28  15 S7        30.05S
MILFORD        CLEAR     73  41  31 VRB3      30.10R
MOAB/CYNLANDS  CLEAR     82  36  19 CALM      30.02S
PRICE          CLEAR     69  19  15 N8        30.15F
ST GEORGE      SUNNY     90  45  20 E12       29.94S

$$

REGIONAL REPORTS     COLORADO/ARIZONA

CITY           SKY/WX    TMP DP  RH WIND       PRES   REMARKS
CRAIG, CO      CLEAR     52  43  71 S3        30.23R
GRAND JUNCTION MOCLDY    81  40  23 SE13      30.07R
RIFLE          CLEAR     68  39  34 CALM      30.17R
MONTROSE       CLEAR     70  41  34 S7        30.19S
CORTEZ         CLOUDY    71  45  39 NE5       30.22S
PAGE, AZ       PTCLDY    81  45  28 S3        30.07S
GRAND CANYON   PTCLDY    58  52  80 CALM      30.29F
KINGMAN        PTCLDY    84  55  36 S6        30.01S
FLAGSTAFF      PTCLDY    66  45  46 VRB5      30.33R

$$

REGIONAL REPORTS    NEVADA/IDAHO/WYOMING

CITY           SKY/WX    TMP DP  RH WIND       PRES   REMARKS
LAS VEGAS, NV  PTCLDY    98  36  11 S13G20    29.81R HX  93
ELY            CLEAR     68  21  16 S6        30.17R
ELKO           CLEAR     70  23  17 E3        30.10R
POCATELLO, ID  CLEAR     59  33  37 E8        30.09S
BURLEY         CLEAR     57  44  62 S5        30.05S
EVANSTON, WY   CLOUDY    64  22  20 S7        30.30R
ROCK SPRINGS   CLOUDY    69  11  10 CALM      30.26R
KEMMERER         N/A     57  25  28 NW15      30.31S

$$




USA.gov is the U.S. government's official web portal to all federal, state and local government web resources and services.